Time,TemperatureF,DewpointF,PressureIn,WindDirection,WindDirectionDegrees,WindSpeedMPH,WindSpeedGustMPH,Humidity,HourlyPrecipIn,Conditions,Clouds,dailyrainin,SoftwareType,DateUTC
2013-06-25 00:01:00,76.5,73.0,30.15,East,88,0.0,0.0,89,0.00,,,0.00,Wunderground v.1.15,2013-06-25 04:01:00,
2013-06-25 00:05:00,76.5,73.0,30.15,East,88,0.0,0.0,89,0.00,,,0.00,Wunderground v.1.15,2013-06-25 04:05:00,
2013-06-25 00:10:00,76.4,73.2,30.15,East,88,0.0,0.0,90,0.00,,,0.00,Wunderground v.1.15,2013-06-25 04:10:00,
2013-06-25 00:15:00,76.3,73.1,30.15,East,88,0.0,0.0,90,0.00,,,0.00,Wunderground v.1.15,2013-06-25 04:15:00,
2013-06-25 00:20:00,76.2,73.1,30.15,East,88,0.0,0.0,90,0.00,,,0.00,Wunderground v.1.15,2013-06-25 04:20:00,
2013-06-25 00:25:00,76.2,73.1,30.15,East,88,0.0,0.0,90,0.00,,,0.00,Wunderground v.1.15,2013-06-25 04:25:00,
2013-06-25 00:30:00,76.1,72.6,30.15,East,88,0.0,0.0,89,0.00,,,0.00,Wunderground v.1.15,2013-06-25 04:30:00,
2013-06-25 00:35:00,76.1,73.0,30.15,East,88,0.0,0.0,90,0.00,,,0.00,Wunderground v.1.15,2013-06-25 04:35:00,
2013-06-25 00:40:00,76.1,72.6,30.15,East,88,0.0,0.0,89,0.00,,,0.00,Wunderground v.1.15,2013-06-25 04:40:00,
2013-06-25 00:45:00,76.0,72.5,30.15,East,88,0.0,0.0,89,0.00,,,0.00,Wunderground v.1.15,2013-06-25 04:45:00,
2013-06-25 00:55:00,75.6,72.8,30.15,East,88,0.0,1.0,91,0.00,,,0.00,Wunderground v.1.15,2013-06-25 04:55:00,
2013-06-25 01:00:00,75.5,72.7,30.14,East,88,0.0,0.0,91,0.00,,,0.00,Wunderground v.1.15,2013-06-25 05:00:00,
2013-06-25 01:10:00,75.3,72.5,30.15,East,88,0.0,0.0,91,0.00,,,0.00,Wunderground v.1.15,2013-06-25 05:10:00,
2013-06-25 01:15:00,75.2,72.4,30.15,East,88,0.0,0.0,91,0.00,,,0.00,Wunderground v.1.15,2013-06-25 05:15:00,
2013-06-25 01:20:00,75.2,72.4,30.15,East,88,0.0,0.0,91,0.00,,,0.00,Wunderground v.1.15,2013-06-25 05:20:00,
2013-06-25 01:30:00,75.2,72.7,30.14,East,88,0.0,0.0,92,0.00,,,0.00,Wunderground v.1.15,2013-06-25 05:30:00,
2013-06-25 01:35:00,75.1,72.6,30.15,East,88,0.0,0.0,92,0.00,,,0.00,Wunderground v.1.15,2013-06-25 05:35:00,
2013-06-25 01:40:00,75.1,72.6,30.14,East,88,0.0,0.0,92,0.00,,,0.00,Wunderground v.1.15,2013-06-25 05:40:00,
2013-06-25 01:45:00,75.1,72.6,30.13,East,88,0.0,0.0,92,0.00,,,0.00,Wunderground v.1.15,2013-06-25 05:45:00,
2013-06-25 01:50:00,75.3,72.8,30.13,East,88,0.0,0.0,92,0.00,,,0.00,Wunderground v.1.15,2013-06-25 05:50:00,
2013-06-25 02:00:00,75.6,73.1,30.13,East,88,0.0,0.0,92,0.00,,,0.00,Wunderground v.1.15,2013-06-25 06:00:00,
2013-06-25 02:10:00,75.5,73.0,30.13,East,88,0.0,0.0,92,0.00,,,0.00,Wunderground v.1.15,2013-06-25 06:10:00,
2013-06-25 02:15:00,75.5,73.0,30.13,East,88,0.0,0.0,92,0.00,,,0.00,Wunderground v.1.15,2013-06-25 06:15:00,
2013-06-25 02:20:00,75.5,73.0,30.13,East,88,0.0,0.0,92,0.00,,,0.00,Wunderground v.1.15,2013-06-25 06:20:00,
2013-06-25 02:25:00,75.4,72.9,30.13,East,88,0.0,0.0,92,0.00,,,0.00,Wunderground v.1.15,2013-06-25 06:25:00,
2013-06-25 02:35:00,75.4,72.9,30.12,East,88,0.0,0.0,92,0.00,,,0.00,Wunderground v.1.15,2013-06-25 06:35:00,
2013-06-25 02:40:00,75.3,72.8,30.12,East,88,0.0,0.0,92,0.00,,,0.00,Wunderground v.1.15,2013-06-25 06:40:00,
2013-06-25 02:45:00,75.3,72.8,30.12,East,88,0.0,0.0,92,0.00,,,0.00,Wunderground v.1.15,2013-06-25 06:45:00,
2013-06-25 02:50:00,75.3,72.8,30.12,East,88,0.0,0.0,92,0.00,,,0.00,Wunderground v.1.15,2013-06-25 06:50:00,
2013-06-25 02:55:00,75.2,72.7,30.12,East,88,0.0,0.0,92,0.00,,,0.00,Wunderground v.1.15,2013-06-25 06:55:00,
2013-06-25 03:00:00,75.1,72.6,30.11,East,88,0.0,0.0,92,0.00,,,0.00,Wunderground v.1.15,2013-06-25 07:00:00,
2013-06-25 03:10:00,74.9,72.4,30.11,East,88,0.0,0.0,92,0.00,,,0.00,Wunderground v.1.15,2013-06-25 07:10:00,
2013-06-25 03:15:00,74.8,72.3,30.10,East,88,0.0,0.0,92,0.00,,,0.00,Wunderground v.1.15,2013-06-25 07:15:00,
2013-06-25 03:20:00,74.7,72.2,30.10,East,88,0.0,0.0,92,0.00,,,0.00,Wunderground v.1.15,2013-06-25 07:20:00,
2013-06-25 03:25:00,74.6,72.4,30.10,East,88,0.0,0.0,93,0.00,,,0.00,Wunderground v.1.15,2013-06-25 07:25:00,
2013-06-25 03:30:00,74.5,72.3,30.10,East,88,0.0,0.0,93,0.00,,,0.00,Wunderground v.1.15,2013-06-25 07:30:00,
2013-06-25 03:35:00,74.4,72.2,30.10,East,88,0.0,0.0,93,0.00,,,0.00,Wunderground v.1.15,2013-06-25 07:35:00,
2013-06-25 03:45:00,74.2,72.4,30.10,East,88,0.0,0.0,94,0.00,,,0.00,Wunderground v.1.15,2013-06-25 07:45:00,
2013-06-25 03:50:00,74.2,72.4,30.09,East,88,0.0,0.0,94,0.00,,,0.00,Wunderground v.1.15,2013-06-25 07:50:00,
2013-06-25 03:55:00,74.2,72.4,30.10,East,88,0.0,0.0,94,0.00,,,0.00,Wunderground v.1.15,2013-06-25 07:55:00,
2013-06-25 04:00:00,74.4,72.6,30.10,East,88,0.0,0.0,94,0.00,,,0.00,Wunderground v.1.15,2013-06-25 08:00:00,
2013-06-25 04:10:00,74.5,72.3,30.09,East,88,0.0,0.0,93,0.00,,,0.00,Wunderground v.1.15,2013-06-25 08:10:00,
2013-06-25 04:20:00,74.2,72.4,30.09,East,88,0.0,0.0,94,0.00,,,0.00,Wunderground v.1.15,2013-06-25 08:20:00,
2013-06-25 04:25:00,74.1,72.3,30.09,East,88,0.0,0.0,94,0.00,,,0.00,Wunderground v.1.15,2013-06-25 08:25:00,
2013-06-25 04:30:00,74.0,72.2,30.09,East,88,0.0,0.0,94,0.00,,,0.00,Wunderground v.1.15,2013-06-25 08:30:00,
2013-06-25 04:35:00,73.9,72.1,30.09,East,88,0.0,0.0,94,0.00,,,0.00,Wunderground v.1.15,2013-06-25 08:35:00,
2013-06-25 04:40:00,73.8,72.3,30.09,East,88,0.0,0.0,95,0.00,,,0.00,Wunderground v.1.15,2013-06-25 08:40:00,
2013-06-25 04:50:00,73.6,72.1,30.08,East,88,0.0,0.0,95,0.00,,,0.00,Wunderground v.1.15,2013-06-25 08:50:00,
2013-06-25 04:55:00,73.5,72.0,30.09,East,88,0.0,0.0,95,0.00,,,0.00,Wunderground v.1.15,2013-06-25 08:55:00,
2013-06-25 05:00:00,73.3,71.8,30.09,East,88,0.0,0.0,95,0.00,,,0.00,Wunderground v.1.15,2013-06-25 09:00:00,
2013-06-25 05:10:00,73.1,71.6,30.09,East,88,0.0,0.0,95,0.00,,,0.00,Wunderground v.1.15,2013-06-25 09:10:00,
2013-06-25 05:15:00,73.1,71.6,30.09,East,88,0.0,0.0,95,0.00,,,0.00,Wunderground v.1.15,2013-06-25 09:15:00,
2013-06-25 05:25:00,73.1,71.6,30.09,East,88,0.0,0.0,95,0.00,,,0.00,Wunderground v.1.15,2013-06-25 09:25:00,
2013-06-25 05:30:00,73.1,71.9,30.09,East,88,0.0,0.0,96,0.00,,,0.00,Wunderground v.1.15,2013-06-25 09:30:00,
2013-06-25 05:35:00,73.2,72.0,30.09,East,88,0.0,0.0,96,0.00,,,0.00,Wunderground v.1.15,2013-06-25 09:35:00,
2013-06-25 05:40:00,73.3,71.8,30.09,East,88,0.0,0.0,95,0.00,,,0.00,Wunderground v.1.15,2013-06-25 09:40:00,
2013-06-25 05:45:00,73.3,71.8,30.09,East,88,0.0,0.0,95,0.00,,,0.00,Wunderground v.1.15,2013-06-25 09:45:00,
2013-06-25 05:50:00,73.3,71.8,30.09,East,88,0.0,0.0,95,0.00,,,0.00,Wunderground v.1.15,2013-06-25 09:50:00,
2013-06-25 06:00:00,73.2,71.7,30.08,East,88,0.0,0.0,95,0.00,,,0.00,Wunderground v.1.15,2013-06-25 10:00:00,
2013-06-25 06:10:00,73.2,71.7,30.08,East,88,0.0,0.0,95,0.00,,,0.00,Wunderground v.1.15,2013-06-25 10:10:00,
2013-06-25 06:15:00,73.2,71.7,30.08,East,88,0.0,0.0,95,0.00,,,0.00,Wunderground v.1.15,2013-06-25 10:15:00,
2013-06-25 06:25:00,73.1,71.6,30.09,East,88,0.0,0.0,95,0.00,,,0.00,Wunderground v.1.15,2013-06-25 10:25:00,
2013-06-25 06:30:00,73.0,71.5,30.09,East,88,0.0,0.0,95,0.00,,,0.00,Wunderground v.1.15,2013-06-25 10:30:00,
2013-06-25 06:35:00,73.0,71.5,30.09,East,88,0.0,0.0,95,0.00,,,0.00,Wunderground v.1.15,2013-06-25 10:35:00,
2013-06-25 06:40:00,73.0,71.5,30.09,East,88,0.0,0.0,95,0.00,,,0.00,Wunderground v.1.15,2013-06-25 10:40:00,
2013-06-25 06:45:00,73.0,71.5,30.09,East,88,0.0,0.0,95,0.00,,,0.00,Wunderground v.1.15,2013-06-25 10:45:00,
2013-06-25 06:50:00,73.1,71.6,30.09,East,88,0.0,0.0,95,0.00,,,0.00,Wunderground v.1.15,2013-06-25 10:50:00,
2013-06-25 06:55:00,73.0,71.5,30.09,East,88,0.0,0.0,95,0.00,,,0.00,Wunderground v.1.15,2013-06-25 10:55:00,
2013-06-25 07:00:00,73.1,71.6,30.09,East,88,0.0,0.0,95,0.00,,,0.00,Wunderground v.1.15,2013-06-25 11:00:00,
2013-06-25 07:10:00,73.4,71.9,30.09,East,88,0.0,0.0,95,0.00,,,0.00,Wunderground v.1.15,2013-06-25 11:10:00,
2013-06-25 07:15:00,73.6,72.1,30.09,East,88,0.0,0.0,95,0.00,,,0.00,Wunderground v.1.15,2013-06-25 11:15:00,
2013-06-25 07:20:00,73.8,72.3,30.10,East,88,0.0,0.0,95,0.00,,,0.00,Wunderground v.1.15,2013-06-25 11:20:00,
2013-06-25 07:25:00,74.0,72.5,30.09,East,88,0.0,0.0,95,0.00,,,0.00,Wunderground v.1.15,2013-06-25 11:25:00,
2013-06-25 07:30:00,74.4,72.6,30.09,East,88,0.0,0.0,94,0.00,,,0.00,Wunderground v.1.15,2013-06-25 11:30:00,
2013-06-25 07:40:00,75.3,73.1,30.09,East,88,0.0,0.0,93,0.00,,,0.00,Wunderground v.1.15,2013-06-25 11:40:00,
2013-06-25 07:45:00,75.8,73.3,30.09,East,88,0.0,0.0,92,0.00,,,0.00,Wunderground v.1.15,2013-06-25 11:45:00,
2013-06-25 07:50:00,76.2,73.4,30.10,East,88,0.0,0.0,91,0.00,,,0.00,Wunderground v.1.15,2013-06-25 11:50:00,
2013-06-25 08:00:00,77.0,73.5,30.10,East,88,0.0,5.0,89,0.00,,,0.00,Wunderground v.1.15,2013-06-25 12:00:00,
2013-06-25 08:10:00,77.7,74.2,30.10,East,88,0.0,5.0,89,0.00,,,0.00,Wunderground v.1.15,2013-06-25 12:10:00,
2013-06-25 08:15:00,78.1,74.3,30.10,East,88,0.0,5.0,88,0.00,,,0.00,Wunderground v.1.15,2013-06-25 12:15:00,
2013-06-25 08:20:00,78.5,74.6,30.11,East,88,0.0,5.0,88,0.00,,,0.00,Wunderground v.1.15,2013-06-25 12:20:00,
2013-06-25 08:25:00,78.9,74.7,30.11,East,88,0.0,5.0,87,0.00,,,0.00,Wunderground v.1.15,2013-06-25 12:25:00,
2013-06-25 08:30:00,79.0,74.8,30.11,East,88,0.0,5.0,87,0.00,,,0.00,Wunderground v.1.15,2013-06-25 12:30:00,
2013-06-25 08:35:00,79.3,75.1,30.11,East,88,0.0,5.0,87,0.00,,,0.00,Wunderground v.1.15,2013-06-25 12:35:00,
2013-06-25 08:40:00,79.6,75.0,30.12,East,88,0.0,5.0,86,0.00,,,0.00,Wunderground v.1.15,2013-06-25 12:40:00,
2013-06-25 08:45:00,80.2,75.3,30.12,East,88,0.0,5.0,85,0.00,,,0.00,Wunderground v.1.15,2013-06-25 12:45:00,
2013-06-25 08:50:00,80.9,75.6,30.11,East,88,0.0,5.0,84,0.00,,,0.00,Wunderground v.1.15,2013-06-25 12:50:00,
2013-06-25 08:55:00,81.7,76.0,30.11,East,88,0.0,5.0,83,0.00,,,0.00,Wunderground v.1.15,2013-06-25 12:55:00,
2013-06-25 09:00:00,81.9,75.5,30.12,East,88,0.0,1.0,81,0.00,,,0.00,Wunderground v.1.15,2013-06-25 13:00:00,
2013-06-25 09:10:00,82.7,75.5,30.12,East,88,0.0,1.0,79,0.00,,,0.00,Wunderground v.1.15,2013-06-25 13:10:00,
2013-06-25 09:20:00,83.7,75.7,30.13,East,88,0.0,1.0,77,0.00,,,0.00,Wunderground v.1.15,2013-06-25 13:20:00,
2013-06-25 09:25:00,83.9,75.5,30.13,East,88,0.0,1.0,76,0.00,,,0.00,Wunderground v.1.15,2013-06-25 13:25:00,
2013-06-25 09:30:00,84.1,75.7,30.13,East,88,1.0,1.0,76,0.00,,,0.00,Wunderground v.1.15,2013-06-25 13:30:00,
2013-06-25 09:35:00,84.1,75.7,30.13,East,88,2.0,8.0,76,0.00,,,0.00,Wunderground v.1.15,2013-06-25 13:35:00,
2013-06-25 09:45:00,83.6,75.2,30.13,East,79,5.0,8.0,76,0.00,,,0.00,Wunderground v.1.15,2013-06-25 13:45:00,
2013-06-25 09:50:00,84.1,75.3,30.14,East,83,4.0,4.0,75,0.00,,,0.00,Wunderground v.1.15,2013-06-25 13:50:00,
2013-06-25 10:00:00,84.3,75.5,30.13,East,83,3.0,3.0,75,0.00,,,0.00,Wunderground v.1.15,2013-06-25 14:00:00,
2013-06-25 10:10:00,84.1,74.5,30.13,East,86,3.0,6.0,73,0.00,,,0.00,Wunderground v.1.15,2013-06-25 14:10:00,
2013-06-25 10:15:00,84.4,75.2,30.13,East,97,4.0,8.0,74,0.00,,,0.00,Wunderground v.1.15,2013-06-25 14:15:00,
2013-06-25 10:25:00,85.5,75.4,30.14,East,97,3.0,6.0,72,0.00,,,0.00,Wunderground v.1.15,2013-06-25 14:25:00,
2013-06-25 10:30:00,86.3,75.4,30.13,East,97,1.0,6.0,70,0.00,,,0.00,Wunderground v.1.15,2013-06-25 14:30:00,
2013-06-25 10:35:00,85.8,74.9,30.13,East,101,2.0,6.0,70,0.00,,,0.00,Wunderground v.1.15,2013-06-25 14:35:00,
2013-06-25 10:40:00,86.4,75.0,30.13,East,100,2.0,2.0,69,0.00,,,0.00,Wunderground v.1.15,2013-06-25 14:40:00,
2013-06-25 10:45:00,86.1,75.2,30.13,ESE,104,3.0,3.0,70,0.00,,,0.00,Wunderground v.1.15,2013-06-25 14:45:00,
2013-06-25 10:55:00,87.0,75.2,30.14,ESE,104,0.0,4.0,68,0.00,,,0.00,Wunderground v.1.15,2013-06-25 14:55:00,
2013-06-25 11:00:00,87.3,74.5,30.14,ESE,113,1.0,7.0,66,0.00,,,0.00,Wunderground v.1.15,2013-06-25 15:00:00,
2013-06-25 11:10:00,87.5,74.3,30.14,ESE,111,3.0,7.0,65,0.00,,,0.00,Wunderground v.1.15,2013-06-25 15:10:00,
2013-06-25 11:20:00,87.8,74.6,30.13,ESE,107,2.0,2.0,65,0.00,,,0.00,Wunderground v.1.15,2013-06-25 15:20:00,
2013-06-25 11:30:00,88.6,74.9,30.13,ESE,107,0.0,7.0,64,0.00,,,0.00,Wunderground v.1.15,2013-06-25 15:30:00,
2013-06-25 11:35:00,89.5,74.8,30.13,ESE,109,0.0,7.0,62,0.00,,,0.00,Wunderground v.1.15,2013-06-25 15:35:00,
2013-06-25 11:45:00,89.7,74.0,30.13,ESE,111,2.0,7.0,60,0.00,,,0.00,Wunderground v.1.15,2013-06-25 15:45:00,
2013-06-25 11:50:00,89.1,74.4,30.13,ESE,111,2.0,2.0,62,0.00,,,0.00,Wunderground v.1.15,2013-06-25 15:50:00,
2013-06-25 11:55:00,89.3,75.0,30.13,ESE,111,1.0,7.0,63,0.00,,,0.00,Wunderground v.1.15,2013-06-25 15:55:00,
2013-06-25 12:00:00,89.5,75.2,30.13,ESE,111,1.0,1.0,63,0.00,,,0.00,Wunderground v.1.15,2013-06-25 16:00:00,
2013-06-25 12:10:00,90.6,73.8,30.12,ESE,111,0.0,0.0,58,0.00,,,0.00,Wunderground v.1.15,2013-06-25 16:10:00,
2013-06-25 12:15:00,91.0,74.2,30.11,ESE,111,0.0,4.0,58,0.00,,,0.00,Wunderground v.1.15,2013-06-25 16:15:00,
2013-06-25 12:20:00,90.8,74.5,30.11,ESE,104,2.0,5.0,59,0.00,,,0.00,Wunderground v.1.15,2013-06-25 16:20:00,
2013-06-25 12:25:00,90.9,74.1,30.12,ESE,104,2.0,5.0,58,0.00,,,0.00,Wunderground v.1.15,2013-06-25 16:25:00,
2013-06-25 12:35:00,89.5,74.3,30.11,ESE,109,1.0,5.0,61,0.00,,,0.00,Wunderground v.1.15,2013-06-25 16:35:00,
2013-06-25 12:40:00,89.5,74.8,30.11,ESE,121,2.0,2.0,62,0.00,,,0.00,Wunderground v.1.15,2013-06-25 16:40:00,
2013-06-25 12:45:00,90.4,74.1,30.10,ESE,122,2.0,2.0,59,0.00,,,0.00,Wunderground v.1.15,2013-06-25 16:45:00,
2013-06-25 12:50:00,90.7,73.9,30.10,SE,125,2.0,2.0,58,0.00,,,0.00,Wunderground v.1.15,2013-06-25 16:50:00,
2013-06-25 12:55:00,91.3,74.4,30.10,SE,125,1.0,2.0,58,0.00,,,0.00,Wunderground v.1.15,2013-06-25 16:55:00,
2013-06-25 13:00:00,92.3,74.3,30.11,SE,126,1.0,1.0,56,0.00,,,0.00,Wunderground v.1.15,2013-06-25 17:00:00,
2013-06-25 13:10:00,92.5,74.0,30.10,SE,126,1.0,1.0,55,0.00,,,0.00,Wunderground v.1.15,2013-06-25 17:10:00,
2013-06-25 13:15:00,92.9,74.4,30.10,SE,126,1.0,4.0,55,0.00,,,0.00,Wunderground v.1.15,2013-06-25 17:15:00,
2013-06-25 13:20:00,92.8,73.7,30.10,SE,128,1.0,4.0,54,0.00,,,0.00,Wunderground v.1.15,2013-06-25 17:20:00,
2013-06-25 13:25:00,92.3,73.2,30.10,SE,130,1.0,6.0,54,0.00,,,0.00,Wunderground v.1.15,2013-06-25 17:25:00,
2013-06-25 13:30:00,90.8,72.9,30.09,SE,130,2.0,2.0,56,0.00,,,0.00,Wunderground v.1.15,2013-06-25 17:30:00,
2013-06-25 13:35:00,91.7,74.3,30.10,SE,128,2.0,4.0,57,0.00,,,0.00,Wunderground v.1.15,2013-06-25 17:35:00,
2013-06-25 13:45:00,92.7,73.6,30.10,SE,132,1.0,4.0,54,0.00,,,0.00,Wunderground v.1.15,2013-06-25 17:45:00,
2013-06-25 13:50:00,92.3,74.3,30.09,SE,134,1.0,1.0,56,0.00,,,0.00,Wunderground v.1.15,2013-06-25 17:50:00,
2013-06-25 13:55:00,91.8,73.9,30.09,SE,134,1.0,4.0,56,0.00,,,0.00,Wunderground v.1.15,2013-06-25 17:55:00,
2013-06-25 14:00:00,92.0,74.6,30.09,SE,132,2.0,2.0,57,0.00,,,0.00,Wunderground v.1.15,2013-06-25 18:00:00,
2013-06-25 14:10:00,92.2,73.7,30.09,SE,132,1.0,1.0,55,0.00,,,0.00,Wunderground v.1.15,2013-06-25 18:10:00,
2013-06-25 14:20:00,93.3,74.2,30.08,SE,145,1.0,2.0,54,0.00,,,0.00,Wunderground v.1.15,2013-06-25 18:20:00,
2013-06-25 14:25:00,93.4,73.7,30.08,SSE,157,1.0,2.0,53,0.00,,,0.00,Wunderground v.1.15,2013-06-25 18:25:00,
2013-06-25 14:30:00,94.2,72.7,30.08,SSE,157,1.0,1.0,50,0.00,,,0.00,Wunderground v.1.15,2013-06-25 18:30:00,
2013-06-25 14:35:00,93.9,72.4,30.08,SSE,157,0.0,4.0,50,0.00,,,0.00,Wunderground v.1.15,2013-06-25 18:35:00,
2013-06-25 14:40:00,93.7,73.4,30.07,SSE,157,1.0,1.0,52,0.00,,,0.00,Wunderground v.1.15,2013-06-25 18:40:00,
2013-06-25 14:45:00,94.1,73.8,30.07,SSE,164,1.0,2.0,52,0.00,,,0.00,Wunderground v.1.15,2013-06-25 18:45:00,
2013-06-25 14:55:00,93.8,73.5,30.06,SSE,161,1.0,2.0,52,0.00,,,0.00,Wunderground v.1.15,2013-06-25 18:55:00,
2013-06-25 15:01:00,94.1,74.4,30.06,South,172,2.0,2.0,53,0.00,,,0.00,Wunderground v.1.15,2013-06-25 19:01:00,
2013-06-25 15:10:00,93.3,73.6,30.06,South,171,1.0,6.0,53,0.00,,,0.00,Wunderground v.1.15,2013-06-25 19:10:00,
2013-06-25 15:15:00,93.7,74.0,30.06,South,169,1.0,7.0,53,0.00,,,0.00,Wunderground v.1.15,2013-06-25 19:15:00,
2013-06-25 15:25:00,94.5,74.2,30.05,South,169,2.0,2.0,52,0.00,,,0.00,Wunderground v.1.15,2013-06-25 19:25:00,
2013-06-25 15:30:00,94.5,74.2,30.05,SSE,167,1.0,6.0,52,0.00,,,0.00,Wunderground v.1.15,2013-06-25 19:30:00,
2013-06-25 15:35:00,94.6,74.2,30.05,SSE,167,0.0,6.0,52,0.00,,,0.00,Wunderground v.1.15,2013-06-25 19:35:00,
2013-06-25 15:40:00,95.0,74.6,30.05,SSE,167,0.0,6.0,52,0.00,,,0.00,Wunderground v.1.15,2013-06-25 19:40:00,
2013-06-25 15:45:00,91.3,73.9,30.06,ESE,121,3.0,11.0,57,0.00,,,0.00,Wunderground v.1.15,2013-06-25 19:45:00,
2013-06-25 15:55:00,84.6,75.0,30.07,ESE,102,12.0,12.0,73,0.00,,,0.00,Wunderground v.1.15,2013-06-25 19:55:00,
2013-06-25 16:00:00,81.2,75.5,30.07,ESE,111,12.0,16.0,83,0.00,,,0.00,Wunderground v.1.15,2013-06-25 20:00:00,
2013-06-25 16:10:00,78.4,73.9,30.06,SE,132,10.0,10.0,86,0.00,,,0.00,Wunderground v.1.15,2013-06-25 20:10:00,
2013-06-25 16:15:00,78.3,73.8,30.05,ESE,114,9.0,16.0,86,0.00,,,0.00,Wunderground v.1.15,2013-06-25 20:15:00,
2013-06-25 16:20:00,78.6,73.7,30.05,ESE,104,7.0,16.0,85,0.00,,,0.00,Wunderground v.1.15,2013-06-25 20:20:00,
2013-06-25 16:30:00,79.7,73.3,30.05,SE,138,6.0,6.0,81,0.00,,,0.00,Wunderground v.1.15,2013-06-25 20:30:00,
2013-06-25 16:35:00,80.2,73.8,30.05,SE,140,5.0,16.0,81,0.00,,,0.00,Wunderground v.1.15,2013-06-25 20:35:00,
2013-06-25 16:40:00,80.0,74.4,30.06,SE,141,3.0,3.0,83,0.00,,,0.00,Wunderground v.1.15,2013-06-25 20:40:00,
2013-06-25 16:45:00,79.8,74.5,30.06,SE,140,1.0,16.0,84,0.00,,,0.00,Wunderground v.1.15,2013-06-25 20:45:00,
2013-06-25 16:50:00,79.8,75.2,30.05,SE,140,1.0,1.0,86,0.00,,,0.00,Wunderground v.1.15,2013-06-25 20:50:00,
2013-06-25 16:55:00,79.9,75.3,30.05,SE,140,1.0,5.0,86,0.00,,,0.00,Wunderground v.1.15,2013-06-25 20:55:00,
2013-06-25 17:00:00,80.3,74.7,30.07,SE,141,2.0,2.0,83,0.00,,,0.00,Wunderground v.1.15,2013-06-25 21:00:00,
2013-06-25 17:10:00,81.0,75.0,30.06,SE,140,1.0,1.0,82,0.00,,,0.00,Wunderground v.1.15,2013-06-25 21:10:00,
2013-06-25 17:15:00,81.0,74.6,30.06,SE,140,0.0,1.0,81,0.00,,,0.00,Wunderground v.1.15,2013-06-25 21:15:00,
2013-06-25 17:20:00,81.1,75.1,30.06,SE,140,0.0,0.0,82,0.00,,,0.00,Wunderground v.1.15,2013-06-25 21:20:00,
2013-06-25 17:25:00,81.2,75.5,30.06,SE,140,0.0,0.0,83,0.00,,,0.00,Wunderground v.1.15,2013-06-25 21:25:00,
2013-06-25 17:30:00,81.3,74.9,30.06,SE,140,0.0,0.0,81,0.00,,,0.00,Wunderground v.1.15,2013-06-25 21:30:00,
2013-06-25 17:40:00,81.2,75.9,30.06,SSE,151,0.0,0.0,84,0.00,,,0.00,Wunderground v.1.15,2013-06-25 21:40:00,
2013-06-25 17:45:00,80.9,75.6,30.06,SSE,152,0.0,2.0,84,0.00,,,0.00,Wunderground v.1.15,2013-06-25 21:45:00,
2013-06-25 17:50:00,80.4,75.1,30.06,SSE,153,0.0,0.0,84,0.00,,,0.00,Wunderground v.1.15,2013-06-25 21:50:00,
2013-06-25 17:55:00,80.0,75.4,30.07,SSE,154,0.0,0.0,86,0.00,,,0.00,Wunderground v.1.15,2013-06-25 21:55:00,
2013-06-25 18:00:00,79.4,74.8,30.07,South,172,1.0,1.0,86,0.00,,,0.00,Wunderground v.1.15,2013-06-25 22:00:00,
2013-06-25 18:10:00,79.1,74.5,30.07,South,172,0.0,5.0,86,0.00,,,0.00,Wunderground v.1.15,2013-06-25 22:10:00,
2013-06-25 18:20:00,78.8,74.6,30.07,South,173,1.0,1.0,87,0.00,,,0.00,Wunderground v.1.15,2013-06-25 22:20:00,
2013-06-25 18:25:00,78.8,74.6,30.07,South,172,0.0,1.0,87,0.00,,,0.00,Wunderground v.1.15,2013-06-25 22:25:00,
2013-06-25 18:30:00,78.8,74.9,30.07,South,181,1.0,3.0,88,0.00,,,0.00,Wunderground v.1.15,2013-06-25 22:30:00,
2013-06-25 18:35:00,78.6,75.1,30.08,South,181,1.0,5.0,89,0.00,,,0.00,Wunderground v.1.15,2013-06-25 22:35:00,
2013-06-25 18:45:00,78.4,74.9,30.08,South,181,1.0,1.0,89,0.00,,,0.00,Wunderground v.1.15,2013-06-25 22:45:00,
2013-06-25 18:50:00,78.5,75.0,30.08,South,181,0.0,0.0,89,0.00,,,0.00,Wunderground v.1.15,2013-06-25 22:50:00,
2013-06-25 18:55:00,78.6,75.1,30.07,South,180,0.0,0.0,89,0.00,,,0.00,Wunderground v.1.15,2013-06-25 22:55:00,
2013-06-25 19:00:00,78.5,75.0,30.06,South,180,0.0,0.0,89,0.00,,,0.00,Wunderground v.1.15,2013-06-25 23:00:00,
2013-06-25 19:10:00,78.5,75.0,30.07,South,180,0.0,0.0,89,0.00,,,0.00,Wunderground v.1.15,2013-06-25 23:10:00,
2013-06-25 19:20:00,78.2,74.7,30.07,South,178,1.0,1.0,89,0.00,,,0.00,Wunderground v.1.15,2013-06-25 23:20:00,
2013-06-25 19:25:00,78.4,74.9,30.06,South,178,0.0,1.0,89,0.00,,,0.00,Wunderground v.1.15,2013-06-25 23:25:00,
2013-06-25 19:30:00,78.4,74.9,30.06,South,178,0.0,0.0,89,0.00,,,0.00,Wunderground v.1.15,2013-06-25 23:30:00,
2013-06-25 19:35:00,78.3,74.8,30.07,South,178,0.0,0.0,89,0.00,,,0.00,Wunderground v.1.15,2013-06-25 23:35:00,
2013-06-25 19:40:00,78.3,74.5,30.07,South,178,0.0,0.0,88,0.00,,,0.00,Wunderground v.1.15,2013-06-25 23:40:00,
2013-06-25 19:45:00,78.3,74.8,30.06,South,178,0.0,0.0,89,0.00,,,0.00,Wunderground v.1.15,2013-06-25 23:45:00,
2013-06-25 19:55:00,78.0,74.5,30.06,South,178,0.0,0.0,89,0.00,,,0.00,Wunderground v.1.15,2013-06-25 23:55:00,
2013-06-25 20:00:00,77.9,74.7,30.06,South,178,0.0,0.0,90,0.00,,,0.00,Wunderground v.1.15,2013-06-26 00:00:00,
2013-06-25 20:10:00,77.6,74.1,30.05,South,178,0.0,0.0,89,0.00,,,0.00,Wunderground v.1.15,2013-06-26 00:10:00,
2013-06-25 20:15:00,77.7,74.5,30.06,South,178,0.0,0.0,90,0.00,,,0.00,Wunderground v.1.15,2013-06-26 00:15:00,
2013-06-25 20:20:00,77.8,74.6,30.06,South,178,0.0,0.0,90,0.00,,,0.00,Wunderground v.1.15,2013-06-26 00:20:00,
2013-06-25 20:30:00,77.8,74.6,30.06,South,178,0.0,0.0,90,0.00,,,0.00,Wunderground v.1.15,2013-06-26 00:30:00,
2013-06-25 20:35:00,77.8,74.6,30.06,South,178,0.0,0.0,90,0.00,,,0.00,Wunderground v.1.15,2013-06-26 00:35:00,
2013-06-25 20:40:00,77.8,74.6,30.07,South,178,0.0,0.0,90,0.00,,,0.00,Wunderground v.1.15,2013-06-26 00:40:00,
2013-06-25 20:45:00,77.8,74.6,30.07,South,178,0.0,0.0,90,0.00,,,0.00,Wunderground v.1.15,2013-06-26 00:45:00,
2013-06-25 20:50:00,77.7,74.5,30.06,South,178,0.0,0.0,90,0.00,,,0.00,Wunderground v.1.15,2013-06-26 00:50:00,
2013-06-25 21:00:00,76.9,74.1,30.07,SSW,195,3.0,6.0,91,0.00,,,0.00,Wunderground v.1.15,2013-06-26 01:00:00,
2013-06-25 21:10:00,76.8,74.3,30.08,SSW,195,1.0,6.0,92,0.00,,,0.00,Wunderground v.1.15,2013-06-26 01:10:00,
2013-06-25 21:15:00,76.7,74.2,30.08,SSW,195,2.0,6.0,92,0.00,,,0.00,Wunderground v.1.15,2013-06-26 01:15:00,
2013-06-25 21:20:00,76.7,74.5,30.08,SSW,195,2.0,6.0,93,0.00,,,0.00,Wunderground v.1.15,2013-06-26 01:20:00,
2013-06-25 21:25:00,76.7,74.5,30.08,SSW,195,2.0,6.0,93,0.00,,,0.00,Wunderground v.1.15,2013-06-26 01:25:00,
2013-06-25 21:35:00,76.9,74.7,30.08,SSW,195,1.0,6.0,93,0.00,,,0.00,Wunderground v.1.15,2013-06-26 01:35:00,
2013-06-25 21:40:00,76.8,74.3,30.08,SSW,195,2.0,2.0,92,0.00,,,0.00,Wunderground v.1.15,2013-06-26 01:40:00,
2013-06-25 21:45:00,76.8,74.3,30.08,SSW,195,1.0,6.0,92,0.00,,,0.00,Wunderground v.1.15,2013-06-26 01:45:00,
2013-06-25 21:50:00,76.9,74.4,30.08,SSW,195,0.0,6.0,92,0.00,,,0.00,Wunderground v.1.15,2013-06-26 01:50:00,
2013-06-25 21:55:00,76.8,74.3,30.07,SSW,195,0.0,6.0,92,0.00,,,0.00,Wunderground v.1.15,2013-06-26 01:55:00,
2013-06-25 22:00:00,77.0,74.5,30.07,SSW,195,0.0,0.0,92,0.00,,,0.00,Wunderground v.1.15,2013-06-26 02:00:00,
2013-06-25 22:10:00,77.0,74.2,30.08,SSW,195,0.0,0.0,91,0.00,,,0.00,Wunderground v.1.15,2013-06-26 02:10:00,
2013-06-25 22:15:00,77.0,74.5,30.08,SSW,195,0.0,0.0,92,0.00,,,0.00,Wunderground v.1.15,2013-06-26 02:15:00,
2013-06-25 22:20:00,77.0,74.5,30.08,SSW,195,0.0,0.0,92,0.00,,,0.00,Wunderground v.1.15,2013-06-26 02:20:00,
2013-06-25 22:25:00,76.9,74.7,30.09,SSW,195,0.0,0.0,93,0.00,,,0.00,Wunderground v.1.15,2013-06-26 02:25:00,
2013-06-25 22:30:00,76.7,74.5,30.09,SSW,195,0.0,0.0,93,0.00,,,0.00,Wunderground v.1.15,2013-06-26 02:30:00,
2013-06-25 22:35:00,76.6,74.4,30.08,SSW,195,0.0,0.0,93,0.00,,,0.00,Wunderground v.1.15,2013-06-26 02:35:00,
2013-06-25 22:45:00,76.5,74.3,30.09,SSW,195,0.0,0.0,93,0.00,,,0.00,Wunderground v.1.15,2013-06-26 02:45:00,
2013-06-25 22:50:00,76.4,74.5,30.09,SSW,195,0.0,0.0,94,0.00,,,0.00,Wunderground v.1.15,2013-06-26 02:50:00,
2013-06-25 22:55:00,76.3,74.4,30.09,SSW,195,0.0,0.0,94,0.00,,,0.00,Wunderground v.1.15,2013-06-26 02:55:00,
2013-06-25 23:00:00,76.2,74.3,30.09,SSW,195,0.0,0.0,94,0.00,,,0.00,Wunderground v.1.15,2013-06-26 03:00:00,
2013-06-25 23:10:00,75.7,74.2,30.09,SSW,195,0.0,0.0,95,0.00,,,0.00,Wunderground v.1.15,2013-06-26 03:10:00,
2013-06-25 23:20:00,75.3,73.8,30.09,SSW,195,0.0,0.0,95,0.00,,,0.00,Wunderground v.1.15,2013-06-26 03:20:00,
2013-06-25 23:25:00,75.3,73.5,30.09,SSW,195,0.0,0.0,94,0.00,,,0.00,Wunderground v.1.15,2013-06-26 03:25:00,
2013-06-25 23:30:00,75.2,73.4,30.09,SSW,195,0.0,0.0,94,0.00,,,0.00,Wunderground v.1.15,2013-06-26 03:30:00,
2013-06-25 23:35:00,75.1,72.9,30.10,SSW,195,0.0,0.0,93,0.00,,,0.00,Wunderground v.1.15,2013-06-26 03:35:00,
2013-06-25 23:40:00,75.2,73.0,30.09,SSW,195,0.0,0.0,93,0.00,,,0.00,Wunderground v.1.15,2013-06-26 03:40:00,
2013-06-25 23:50:00,75.3,73.1,30.09,SSW,195,0.0,0.0,93,0.00,,,0.00,Wunderground v.1.15,2013-06-26 03:50:00,
2013-06-25 23:55:00,75.4,72.9,30.09,SSW,195,0.0,0.0,92,0.00,,,0.00,Wunderground v.1.15,2013-06-26 03:55:00,